Regional Weather Roundup
Issued by NWS New Orleans/Baton Rouge, LA

Home | Current Version | Previous Version | Graphics & Text | Print | Product List | Glossary On
Versions: 1 2 3 4 5 6 7 8 9 10 11 12 13 14 15 16 17 18 19 20 21 22 23 24 25 26 27 28 29 30 31 32 33 34 35 36 37 38 39 40 41 42 43 44 45 46 47 48 49 50
553
ASUS44 KLIX 170501
RWRLIX
NEW ORLEANS REGIONAL WEATHER ROUNDUP
NATIONAL WEATHER SERVICE NEW ORLEANS LA
1200 AM CDT WED SEP 17 2014

NOTE: "FAIR" INDICATES FEW OR NO CLOUDS BELOW 12,000 FEET WITH NO
      SIGNIFICANT WEATHER AND/OR OBSTRUCTIONS TO VISIBILITY.
      SKY/WX - SKY CONDITION AND SIGNIFICANT WEATHER.
      TMP - AIR TEMPERATURE.     DP    - DEWPOINT TEMPERATURE.
      RH  - RELATIVE HUMIDITY.   PRES  - PRESSURE.
      HI  - HEAT INDEX.          WCI   - WIND CHILL INDEX.

*  THESE STATIONS ARE NOT NWS OR FAA STATIONS AND ARE NOT UNDER
   NWS QUALITY CONTROL.

LAZ038-040-048-061>063-065>067-069-170600-
SOUTHEAST LOUISIANA

CITY           SKY/WX    TMP DP  RH WIND       PRES   REMARKS
N.O. AUDUBON     N/A     78  78  98 MISG        N/A
N.O. INTL ARPT CLOUDY    77  72  84 N7        30.01F
N.O. LAKEFRONT CLOUDY    78  73  84 N13       30.01F
N.O. DOWNTOWN* MOCLDY    79  72  78 N6        30.01F
SLIDELL        CLOUDY    74  71  91 NW6       30.00F
BATON ROUGE    CLOUDY    73  72  96 N3        30.01F
BOOTHVILLE     CLOUDY    77  75  93 W6        30.00F
BELLE CHASSE   CLOUDY    77  74  90 NE3       30.00F
BOGALUSA*        N/A     75  71  86 W3        30.01F
GALLIANO*      NOT AVBL
NEW ROADS*       N/A     74  73  98 CALM      30.00F FOG
GONZALES*        N/A     72  72 100 CALM      30.00F
HAMMOND*       NOT AVBL
HOUMA*         CLOUDY    75  72  88 N6        30.01F
PORT FOURCHON* NOT AVBL

$$

MSZ070-080>082-170600-
SOUTHERN MISSISSIPPI

CITY           SKY/WX    TMP DP  RH WIND       PRES   REMARKS
MCCOMB         PTCLDY    72  70  93 E6        30.03S
GULFPORT       CLOUDY    74  71  91 N5        29.98F
BILOXI         NOT AVBL
PASCAGOULA     CLOUDY    73  72  96 CALM      29.99F

$$

COASTAL OBSERVATIONS
LAKE AND NEARSHORE STATIONS

STATION/POSITION TIME  TEMP    WIND        PRES    WAVE
                       AIR SEA DIR/SP/G            HT/PER
                 (UTC) (F)     (DEG/KT/KT) (MB)    (FT/S)
PASCAGOULA       0400   75     360/  4/  7 1015.3
WAVELAND YACHT   0400   76     360/  9/ 10 1015.3
GRAND ISLE       0400   80 85  340/  4/  5 1017.0
SOUTHWEST PASS   0400   81 90  310/  7/  9 1016.6
NEW CANAL        0400   79 82   30/ 13/ 15 1016.8
SHELL BEACH      0400   80 80  340/  8/  9 1015.9

OFFSHORE STATIONS

STATION/POSITION TIME  TEMP    WIND        PRES    WAVE
                       AIR SEA DIR/SP/G            HT/PER
                 (UTC) (F)     (DEG/KT/KT) (MB)    (FT/S)
64 S DAUPHIN ISL 0450   80 85  350/  6/  8 1016.0    2/ 4

$$




USA.gov is the U.S. government's official web portal to all federal, state and local government web resources and services.